TimeAKDT,TemperatureF,Dew PointF,Humidity,Sea Level PressureIn,VisibilityMPH,Wind Direction,Wind SpeedMPH,Gust SpeedMPH,PrecipitationIn,Events,Conditions,WindDirDegrees,DateUTC
12:53 AM,42.8,33.8,70,29.68,10.0,WNW,10.4,-,N/A,,Overcast,300,2011-10-16 08:53:00
1:53 AM,42.1,33.1,70,29.69,10.0,West,5.8,-,N/A,,Mostly Cloudy,280,2011-10-16 09:53:00
2:53 AM,42.1,33.1,70,29.69,10.0,Calm,Calm,-,N/A,,Mostly Cloudy,0,2011-10-16 10:53:00
3:53 AM,42.1,30.9,65,29.69,10.0,WNW,5.8,-,N/A,,Mostly Cloudy,300,2011-10-16 11:53:00
4:53 AM,42.1,30.0,62,29.69,10.0,WNW,12.7,-,N/A,,Mostly Cloudy,300,2011-10-16 12:53:00
5:53 AM,39.9,30.9,70,29.70,10.0,NW,10.4,-,N/A,,Scattered Clouds,310,2011-10-16 13:53:00
6:53 AM,39.9,30.0,68,29.70,10.0,NW,11.5,-,N/A,,Scattered Clouds,310,2011-10-16 14:53:00
7:53 AM,36.0,30.0,79,29.71,10.0,NW,4.6,-,N/A,,Scattered Clouds,310,2011-10-16 15:53:00
8:53 AM,39.0,32.0,76,29.73,10.0,Variable,5.8,-,N/A,,Scattered Clouds,0,2011-10-16 16:53:00
9:53 AM,36.0,32.0,86,29.74,10.0,Calm,Calm,-,N/A,,Partly Cloudy,0,2011-10-16 17:53:00
10:53 AM,43.0,30.9,62,29.74,10.0,Calm,Calm,-,N/A,,Clear,0,2011-10-16 18:53:00
11:53 AM,46.0,28.9,51,29.75,10.0,West,3.5,-,N/A,,Clear,260,2011-10-16 19:53:00
12:53 PM,46.9,28.9,50,29.75,10.0,WSW,5.8,-,N/A,,Clear,250,2011-10-16 20:53:00
1:53 PM,46.9,30.0,52,29.76,10.0,Calm,Calm,-,N/A,,Clear,0,2011-10-16 21:53:00
2:53 PM,46.0,28.9,51,29.77,10.0,WNW,10.4,-,N/A,,Partly Cloudy,290,2011-10-16 22:53:00
3:53 PM,46.9,28.9,50,29.76,10.0,WNW,6.9,-,N/A,,Scattered Clouds,290,2011-10-16 23:53:00
4:53 PM,46.9,28.0,48,29.77,10.0,WNW,8.1,-,N/A,,Scattered Clouds,290,2011-10-17 00:53:00
5:53 PM,45.0,30.0,56,29.78,10.0,West,8.1,-,N/A,,Scattered Clouds,280,2011-10-17 01:53:00
6:53 PM,44.1,30.0,58,29.80,10.0,Calm,Calm,-,N/A,,Scattered Clouds,0,2011-10-17 02:53:00
7:53 PM,36.0,30.0,79,29.82,10.0,WNW,5.8,-,N/A,,Scattered Clouds,290,2011-10-17 03:53:00
8:53 PM,34.0,28.9,82,29.84,10.0,WNW,5.8,-,N/A,,Scattered Clouds,290,2011-10-17 04:53:00
9:53 PM,30.9,27.0,85,29.85,10.0,WNW,4.6,-,N/A,,Scattered Clouds,290,2011-10-17 05:53:00
10:53 PM,32.0,28.0,85,29.86,10.0,WNW,5.8,-,N/A,,Clear,300,2011-10-17 06:53:00
11:53 PM,30.0,28.0,92,29.87,10.0,West,4.6,-,N/A,,Clear,280,2011-10-17 07:53:00